Home > Time Zones > World Clock > Weather > Russia > Perm > Past weeks

Flag for Russia Weather past 2 weeks in Perm, Russia

Now
9 °F

Passing clouds.


Feels Like: -11 °F
Forecast: 0 / 6 °F
Wind: 20 mph from Southwest

Location: Perm'/Bolshoe Savino

Current Time: Jan 26, 2015 at 9:58:59 PM

Latest Report: Jan 26, 2015 at 9:00 PM


Visibility: 6 mi

Pressure: 30.45 "Hg

Humidity: 66%

Dew point: 0 °F

Location of PermLocation

Historic Weather in Perm — Graph

°F

Perm temperature yesterday

Maximum temperature yesterday: 10 °F (at 1:00 PM)
Minimum temperature yesterday: 5 °F (at 12:00 AM)
Average temperature yesterday: 9 °F

Past Weeks' High & Low Weather Summary

 TemperatureHumidityPressure
High34 °F (Jan 15, 9:30 AM)100% (Jan 13, 5:00 AM)30.83 "Hg (Jan 13, 5:00 AM)
Low-27 °F (Jan 23, 9:00 AM)56% (Jan 26, 6:30 PM)29.42 "Hg (Jan 13, 8:30 AM)
Average15 °F85%30.04 "Hg
* Reported Jan 11 8:00 PM — Jan 26 8:30 PM, Perm, Weather by CustomWeather, © 2014

Note: Actual official high and low records may vary slightly from our data, if they occured in-between our weather recording intervals... More about our weather records

Advertising

Perm weather history for previous 24 hours

 ConditionsComfort  
Time TempWeatherWind HumidityBarometerVisibility
8:30 PM
Jan 26
9 °FPassing clouds.15 mph66%30.45 "HgN/A
8:00 PM10 °FPassing clouds.17 mph61%30.45 "HgN/A
7:30 PM9 °FPartly cloudy.15 mph66%30.48 "HgN/A
7:00 PM10 °FSunny.13 mph61%30.48 "Hg10 mi
6:30 PM10 °FSunny.10 mph56%30.48 "Hg10 mi
6:00 PM10 °FSunny.10 mph61%30.48 "Hg10 mi
5:30 PM10 °FSunny.6 mph61%30.48 "Hg10 mi
5:00 PM10 °FSunny.8 mph61%30.48 "Hg10 mi
4:30 PM10 °FSunny.13 mph61%30.51 "Hg10 mi
4:00 PM12 °FSunny.15 mph62%30.51 "Hg10 mi
3:30 PM12 °FSunny.13 mph62%30.51 "Hg10 mi
3:00 PM12 °FSunny.10 mph62%30.51 "Hg10 mi
2:30 PM12 °FSunny.10 mph62%30.51 "Hg10 mi
2:00 PM12 °FSunny.13 mph62%30.51 "Hg10 mi
1:30 PM12 °FSunny.13 mph62%30.51 "Hg10 mi
1:00 PM10 °FSunny.13 mph67%30.54 "Hg10 mi
12:30 PM10 °FSunny.13 mph67%30.54 "Hg10 mi
12:00 PM10 °FSunny.10 mph67%30.54 "Hg10 mi
11:30 AM9 °FPassing clouds.17 mph72%30.54 "HgN/A
11:00 AM9 °FPassing clouds.17 mph72%30.54 "HgN/A
10:30 AM9 °FPassing clouds.20 mph78%30.54 "HgN/A
10:00 AM9 °FPartly cloudy.17 mph78%30.54 "HgN/A
9:30 AM10 °FPassing clouds.15 mph79%30.54 "HgN/A
9:00 AM10 °FPassing clouds.15 mph79%30.54 "HgN/A
8:00 AM10 °FPartly cloudy.13 mph85%30.57 "HgN/A
7:30 AM12 °FPartly cloudy.13 mph79%30.57 "HgN/A
7:00 AM12 °FMostly cloudy.10 mph79%30.57 "HgN/A
6:30 AM12 °FMostly cloudy.15 mph79%30.57 "HgN/A
6:00 AM12 °FMostly cloudy.17 mph79%30.57 "HgN/A
5:30 AM12 °FMostly cloudy.15 mph79%30.57 "HgN/A
5:00 AM10 °FMostly cloudy.17 mph85%30.60 "HgN/A
4:30 AM10 °FLight snow. Mostly cloudy.15 mph85%30.60 "HgN/A
4:00 AM10 °FLight snow. Mostly cloudy.15 mph85%30.60 "HgN/A
3:30 AM10 °FLight snow. Mostly cloudy.15 mph85%30.63 "HgN/A
3:00 AM10 °FLight snow. Mostly cloudy.13 mph85%30.63 "HgN/A
2:30 AM10 °FLight snow. Mostly cloudy.13 mph85%30.63 "HgN/A
1:00 AM10 °FMostly cloudy.15 mph85%30.63 "HgN/A
12:00 AM10 °FLight snow. Mostly cloudy.13 mph85%30.66 "HgN/A
11:30 PM
Jan 25
10 °FLight snow. Mostly cloudy.10 mph85%30.66 "HgN/A
11:00 PM10 °FLight snow. Mostly cloudy.13 mph85%30.66 "HgN/A
10:30 PM10 °FLight snow. Mostly cloudy.13 mph85%30.66 "HgN/A
10:00 PM10 °FLight snow. Mostly cloudy.10 mph85%30.66 "HgN/A
9:30 PM10 °FLight snow. Mostly cloudy.13 mph85%30.66 "HgN/A
9:00 PM10 °FLight snow. Mostly cloudy.13 mph85%30.66 "HgN/A
Weather by CustomWeather, © 2014

See weather overviewHow to use our weather pages